Location: Mauna Kea VIS
(19.7591°N, 155.4561°W)
Time: 19:09:51
(UTC-10:00)

ISS - Visible Passes

Search period start: 08 December 2025 00:00
Search period end: 18 December 2025 00:00
Orbit: 416 x 421 km, 51.6° (Epoch: 08 December)

Date Brightness Start Highest point End Pass type
(mag) Time Alt. Az. Time Alt. Az. Time Alt. Az.
08 Dec -0.3 06:09:24 10° SSE 06:11:20 14° SE 06:13:15 10° E visible
10 Dec -3.4 06:08:51 10° SSW 06:12:10 69° SE 06:15:31 10° NE visible
11 Dec -1.7 05:21:25 10° S 05:24:22 29° SE 05:27:19 10° ENE visible
12 Dec -0.6 04:36:08 14° SE 04:36:33 14° SE 04:38:22 10° E visible
12 Dec -2.6 06:10:19 10° WSW 06:13:06 24° NW 06:15:54 10° N visible
13 Dec -3.1 05:25:55 40° N 05:25:55 40° N 05:28:25 10° NNE visible
